Prague, Czech Republic

6:27 AM CEST on May 25, 2017 (GMT +0200)
Ruzyne

Weather History for LKPR - March, 2014

Change the Weather History Date:

Saturday, March 29, 2014

  Actual Average Record
Temperature  
Mean Temperature 46 °F -  
Max Temperature 61 °F 56 °F 64 °F (2017)
Min Temperature 32 °F 36 °F 26 °F (2011)
Degree Days  
Heating Degree Days 18    
Moisture  
Dew Point 39 °F    
Average Humidity 79    
Maximum Humidity 100    
Minimum Humidity 43    
Precipitation  
Precipitation 0.00 in 0.05 in - ()
Sea Level Pressure  
Sea Level Pressure 30.20 in    
Wind  
Wind Speed 4 mph ()    
Max Wind Speed 13 mph    
Max Gust Speed -    
Visibility 2.8 miles    
Events Fog    
Averages and records for this station are not official NWS values.
T = Trace of Precipitation, MM = Missing Value Source: Averaged Metar Reports

Daily Weather History Graph

Daily Weather History Graph

Search for Another Location

Airport or City:

Trip Planner

Search our weather history database for the weather conditions in past years. The results will help you decide how hot, cold, wet, or windy it might be!

Date:

Astronomy

Mar. 29, 2014 Rise Set
Actual Time 5:46 AM CET 6:29 PM CET
Civil Twilight 5:13 AM CET 7:02 PM CET
Nautical Twilight 4:34 AM CET 7:41 PM CET
Astronomical Twilight 3:53 AM CET 8:23 PM CET
Moon 4:53 AM CET (3/29) 5:09 PM CET (3/29)
Length of Visible Light 13h 48m
Length of Day
12h 43m
Waning Crescent, 2% of the Moon is Illuminated
Mar 29
Waning Crescent
Mar 30
New
Apr 7
First Quarter
Apr 15
Full
Apr 22
Last Quarter

Hourly Weather History & Observations

Time (CET) Temp. Windchill Dew Point Humidity Pressure Visibility Wind Dir Wind Speed Gust Speed Precip Events Conditions
12:00 AM 38 °F - 36 °F 87% 30.25 in 6 mi NNE 2.2 mph - -  
12:00 AM 39.2 °F 35.9 °F 35.6 °F 87% 30.18 in - NNE 4.6 mph - N/A   Clear
12:30 AM 39.2 °F - 35.6 °F 87% 30.18 in - Calm Calm - N/A   Clear
1:00 AM 37 °F - 35 °F 88% 30.26 in 6 mi NW 2.2 mph - -   Mist
1:00 AM 37.4 °F - 33.8 °F 87% 30.21 in 5.6 mi West 2.3 mph - N/A   Unknown
1:30 AM 37.4 °F - 35.6 °F 93% 30.21 in 5.6 mi Variable 2.3 mph - N/A   Unknown
2:00 AM 37 °F - 36 °F 93% 30.27 in 5 mi North 4.5 mph - -   Mist
2:00 AM 37.4 °F - 35.6 °F 93% 30.21 in 5.0 mi Calm Calm - N/A   Unknown
2:30 AM 37.4 °F 33.8 °F 35.6 °F 93% 30.21 in 4.3 mi ENE 4.6 mph - N/A   Unknown
3:00 AM 34 °F - 33 °F 93% 30.28 in 4 mi WNW 4.5 mph - -   Mist
3:00 AM 33.8 °F - 32.0 °F 93% 30.21 in 3.7 mi WNW 2.3 mph - N/A   Unknown
3:30 AM 35.6 °F 32.8 °F 35.6 °F 100% 30.21 in 3.1 mi NNW 3.5 mph - N/A   Mist
3:39 AM 35.6 °F - 33.8 °F 93% 30.21 in 2.8 mi NNW 2.3 mph - N/A   Mist
4:00 AM 35 °F - 34 °F 95% 30.27 in 2 mi North 4.5 mph - -   Mist
4:00 AM 35.6 °F - 33.8 °F 93% 30.21 in 2.2 mi North 2.3 mph - N/A   Mist
4:16 AM 35.6 °F - 33.8 °F 93% 30.21 in 1.7 mi North 2.3 mph - N/A Fog Mist
4:30 AM 35.6 °F - 33.8 °F 93% 30.21 in 1.4 mi Variable 1.2 mph - N/A Fog Mist
4:44 AM 35.6 °F - 33.8 °F 93% 30.21 in 0.7 mi West 2.3 mph - N/A Fog Patches of Fog
4:53 AM 35.6 °F - 33.8 °F 93% 30.21 in 0.4 mi West 2.3 mph - N/A   Partly Cloudy
5:00 AM 36 °F - 35 °F 92% 30.27 in 0 mi NW 4.5 mph - - Fog Partial Fog
5:00 AM 35.6 °F - 33.8 °F 93% 30.21 in 0.2 mi West 2.3 mph - N/A   Partly Cloudy
5:02 AM 35.6 °F - 33.8 °F 93% 30.21 in 0.3 mi Variable 1.2 mph - N/A Fog Fog
5:18 AM 35.6 °F - 33.8 °F 93% 30.21 in 0.2 mi Variable 1.2 mph - N/A Fog Fog
5:22 AM 35.6 °F - 33.8 °F 93% 30.21 in 0.2 mi Calm Calm - N/A   Partly Cloudy
5:30 AM 33.8 °F - 33.8 °F 100% 30.21 in 0.2 mi Variable 1.2 mph - N/A   Scattered Clouds
5:34 AM 33.8 °F - 33.8 °F 100% 30.21 in 0.2 mi Variable 1.2 mph - N/A Fog Fog
5:39 AM 33.8 °F - 32.0 °F 93% 30.21 in 0.1 mi Variable 1.2 mph - N/A Fog Fog
5:51 AM 33.8 °F - 33.8 °F 100% 30.21 in 0.1 mi Variable 1.2 mph - N/A Fog Fog
6:00 AM 34 °F - 33 °F 94% 30.28 in 0 mi NNW 2.2 mph - - Fog Partial Fog
6:00 AM 33.8 °F - 33.8 °F 100% 30.21 in 0.1 mi Variable 1.2 mph - N/A Fog Fog
6:09 AM 33.8 °F - 33.8 °F 100% 30.21 in 0.2 mi Variable 2.3 mph - N/A Fog Fog
6:14 AM 33.8 °F - 32.0 °F 93% 30.21 in 0.1 mi Variable 1.2 mph - N/A Fog Fog
6:21 AM 33.8 °F - 32.0 °F 93% 30.21 in 0.1 mi Variable 2.3 mph - N/A Fog Fog
6:30 AM 32.0 °F - 32.0 °F 100% 30.21 in 0.1 mi Variable 2.3 mph - N/A Fog Fog
6:37 AM 33.8 °F 30.8 °F 32.0 °F 93% 30.21 in 0.1 mi West 3.5 mph - N/A Fog Fog
6:42 AM 33.8 °F - 32.0 °F 93% 30.21 in 0.1 mi West 2.3 mph - N/A Fog Fog
7:00 AM 33 °F - 33 °F 97% 30.29 in 0 mi WNW 2.2 mph - - Fog Partial Fog
7:00 AM 33.8 °F - 32.0 °F 93% 30.21 in 0.1 mi West 2.3 mph - N/A Fog Fog
7:14 AM 35.6 °F - 35.6 °F 100% 30.21 in 0.1 mi West 2.3 mph - N/A Fog Fog
7:22 AM 35.6 °F 32.8 °F 35.6 °F 100% 30.21 in 0.2 mi West 3.5 mph - N/A   Scattered Clouds
7:30 AM 37.4 °F - 35.6 °F 93% 30.21 in 0.2 mi Variable 2.3 mph - N/A   Scattered Clouds
7:38 AM 39.2 °F - 37.4 °F 93% 30.21 in 0.8 mi Variable 2.3 mph - N/A Fog Scattered Clouds
7:45 AM 39.2 °F - 39.2 °F 100% 30.21 in 0.7 mi Variable 2.3 mph - N/A Fog Partly Cloudy
8:00 AM 40 °F - 39 °F 97% 30.28 in 1 mi NW 2.2 mph - - Fog Light Fog
8:00 AM 41.0 °F - 39.2 °F 93% 30.21 in 0.9 mi Variable 2.3 mph - N/A   Partly Cloudy
8:30 AM 41.0 °F - 41.0 °F 100% 30.24 in 1.7 mi Variable 2.3 mph - N/A   Mist
8:36 AM 42.8 °F - 41.0 °F 93% 30.24 in 2.2 mi Variable 2.3 mph - N/A   Mist
9:00 AM 44 °F - 44 °F 97% 30.27 in 2 mi North 4.5 mph - -   Mist
9:00 AM 44.6 °F 43.1 °F 42.8 °F 93% 30.24 in 2.5 mi NE 3.5 mph - N/A   Mist
9:30 AM 46.4 °F 45.2 °F 42.8 °F 87% 30.24 in 3.1 mi NNE 3.5 mph - N/A   Partly Cloudy
10:00 AM 49 °F - 43 °F 71% 30.27 in 3 mi East 4.5 mph - -   Mist
10:00 AM 48.2 °F - 42.8 °F 82% 30.24 in 3.1 mi NE 4.6 mph - N/A   Partly Cloudy
10:30 AM 51.8 °F - 44.6 °F 76% 30.24 in 3.7 mi ENE 3.5 mph - N/A   Partly Cloudy
11:00 AM 53 °F - 43 °F 61% 30.25 in 3 mi ENE 4.5 mph - -   Mist
11:00 AM 51.8 °F - 42.8 °F 71% 30.21 in 3.1 mi Variable 2.3 mph - N/A   Mist
11:30 AM 53.6 °F - 44.6 °F 72% 30.21 in 3.7 mi ENE 4.6 mph - N/A   Unknown
12:00 PM 56 °F - 44 °F 55% 30.22 in 4 mi ENE 8.9 mph - -   Mist
12:00 PM 57.2 °F - 44.6 °F 63% 30.21 in 3.7 mi ENE 8.1 mph - N/A   Unknown
12:30 PM 57.2 °F - 44.6 °F 63% 30.21 in 4.3 mi ENE 8.1 mph - N/A   Partly Cloudy
1:00 PM 59 °F - 44 °F 48% 30.21 in 4 mi East 11.2 mph - -   Haze
1:00 PM 59.0 °F - 44.6 °F 59% 30.21 in 4.3 mi East 10.4 mph - N/A   Partly Cloudy
1:30 PM 59.0 °F - 44.6 °F 59% 30.18 in 4.3 mi East 8.1 mph - N/A   Partly Cloudy
2:00 PM 60 °F - 46 °F 48% 30.19 in 4 mi ENE 11.2 mph - -   Haze
2:00 PM 60.8 °F - 46.4 °F 59% 30.18 in 4.3 mi ENE 10.4 mph - N/A   Partly Cloudy
2:30 PM 60.8 °F - 44.6 °F 55% 30.18 in 4.3 mi ENE 9.2 mph - N/A   Partly Cloudy
3:00 PM 62 °F - 45 °F 43% 30.16 in 4 mi East 11.2 mph - -   Haze
3:00 PM 60.8 °F - 44.6 °F 55% 30.15 in 4.3 mi East 10.4 mph - N/A   Partly Cloudy
3:30 PM 60.8 °F - 44.6 °F 55% 30.15 in 5.0 mi East 11.5 mph - N/A   Partly Cloudy
4:00 PM 61 °F - 45 °F 44% 30.15 in 6 mi East 11.2 mph - -   Haze
4:00 PM 60.8 °F - 44.6 °F 55% 30.15 in 5.6 mi East 12.7 mph - N/A   Partly Cloudy
4:30 PM 60.8 °F - 42.8 °F 52% 30.15 in 6.2 mi ESE 10.4 mph - N/A   Partly Cloudy
5:00 PM 60 °F - 43 °F 43% 30.14 in 6 mi East 11.2 mph - -  
5:00 PM 60.8 °F - 42.8 °F 52% 30.15 in - East 11.5 mph - N/A   Clear
5:30 PM 59.0 °F - 42.8 °F 55% 30.15 in - East 9.2 mph - N/A   Clear
6:00 PM 55 °F - 43 °F 54% 30.15 in 6 mi East 8.9 mph - -  
6:00 PM 55.4 °F - 42.8 °F 63% 30.12 in - East 9.2 mph - N/A   Clear
6:30 PM 53.6 °F - 42.8 °F 67% 30.12 in - East 8.1 mph - N/A   Clear
7:00 PM 53 °F - 42 °F 58% 30.16 in 6 mi East 6.7 mph - -  
7:00 PM 51.8 °F - 42.8 °F 71% 30.15 in - East 6.9 mph - N/A   Clear
7:30 PM 51.8 °F - 41.0 °F 67% 30.15 in - East 6.9 mph - N/A   Clear
8:00 PM 50 °F - 40 °F 60% 30.17 in 6 mi East 8.9 mph - -  
8:00 PM 50.0 °F - 41.0 °F 71% 30.15 in - East 9.2 mph - N/A   Clear
8:30 PM 51.8 °F - 41.0 °F 67% 30.15 in - East 9.2 mph - N/A   Clear
9:00 PM 50 °F - 40 °F 58% 30.17 in 7 mi East 6.7 mph - -  
9:00 PM 50.0 °F - 39.2 °F 66% 30.15 in - East 4.6 mph - N/A   Clear
9:30 PM 50.0 °F - 39.2 °F 66% 30.15 in - ESE 5.8 mph - N/A   Clear
10:00 PM 50 °F - 39 °F 57% 30.16 in 7 mi East 6.7 mph - -  
10:00 PM 50.0 °F - 39.2 °F 66% 30.12 in - East 4.6 mph - N/A   Clear
10:30 PM 50.0 °F - 39.2 °F 66% 30.15 in - East 4.6 mph - N/A   Clear
11:00 PM 48 °F - 39 °F 62% 30.16 in 6 mi East 8.9 mph - -  
11:00 PM 48.2 °F - 39.2 °F 71% 30.12 in - East 4.6 mph - N/A   Clear
11:30 PM 46.4 °F 44.3 °F 37.4 °F 71% 30.12 in - East 4.6 mph - N/A   Clear